STR775 ESSA-EKCH

Flight info

Callsign STR775
Flight time 1h 23m
Altitude 26000
Route PETEV N872 ERNOV
Aircraft STAR/L-SDFGIRWY/LB1

Departure

Time 2026-05-05 18:21
Airport Stockholm-Arlanda Airport (ESSA)

Arrival

Time 2026-05-05 19:44
Airport Copenhagen Kastrup Airport (EKCH)
Time Latitude Longitude Altitude Speed Heading
2026-05-05 17:38 59.63789 17.91942 103 ft 0 kts 155°
2026-05-05 18:12 59.63779 17.91937 102 ft 9 kts 227°
2026-05-05 18:12 59.63830 17.91914 105 ft 13 kts
2026-05-05 18:12 59.63865 17.91926 107 ft 9 kts 10°
2026-05-05 18:13 59.63924 17.91950 110 ft 10 kts 11°
2026-05-05 18:13 59.64002 17.91978 110 ft 10 kts
2026-05-05 18:13 59.64083 17.92006 110 ft 5 kts 11°
2026-05-05 18:13 59.64131 17.91958 110 ft 12 kts 281°
2026-05-05 18:14 59.64181 17.91850 110 ft 18 kts
2026-05-05 18:14 59.64329 17.91905 109 ft 23 kts 11°
2026-05-05 18:14 59.64405 17.91873 107 ft 8 kts 289°
2026-05-05 18:14 59.64406 17.91867 107 ft 0 kts 276°
2026-05-05 18:19 59.64420 17.91693 104 ft 21 kts 280°
2026-05-05 18:19 59.64472 17.91593 105 ft 1 kts 12°
2026-05-05 18:20 59.64592 17.91637 107 ft 40 kts 11°
2026-05-05 18:20 59.65016 17.91790 100 ft 83 kts 11°
2026-05-05 18:20 59.65724 17.92041 232 ft 120 kts 11°
2026-05-05 18:21 59.66591 17.92281 847 ft 129 kts 359°
2026-05-05 18:21 59.67391 17.91470 1466 ft 141 kts 303°
2026-05-05 18:21 59.67434 17.89599 2288 ft 138 kts 249°
2026-05-05 18:21 59.67018 17.87920 3019 ft 149 kts 247°
2026-05-05 18:22 59.66521 17.85920 3374 ft 151 kts 247°
2026-05-05 18:22 59.66137 17.84426 4434 ft 100 kts 248°
2026-05-05 18:22 59.65797 17.83137 4768 ft 121 kts 247°
2026-05-05 18:22 59.65383 17.81642 5425 ft 126 kts 235°
2026-05-05 18:23 59.64650 17.80673 6174 ft 130 kts 207°
2026-05-05 18:23 59.63785 17.80020 6802 ft 137 kts 207°
2026-05-05 18:23 59.62890 17.79369 7546 ft 134 kts 209°
2026-05-05 18:23 59.62009 17.78652 8209 ft 139 kts 217°
2026-05-05 18:24 59.61302 17.77558 9200 ft 122 kts 226°
2026-05-05 18:24 59.60601 17.76396 9753 ft 137 kts 227°
2026-05-05 18:24 59.59908 17.75185 10539 ft 133 kts 230°
2026-05-05 18:24 59.59231 17.73871 11187 ft 144 kts 231°
2026-05-05 18:25 59.58428 17.72291 11427 ft 179 kts 230°
2026-05-05 18:25 59.57817 17.71101 11670 ft 192 kts 229°
2026-05-05 18:25 59.56456 17.68393 11905 ft 223 kts 229°
2026-05-05 18:25 59.55288 17.66161 11804 ft 246 kts 229°
2026-05-05 18:26 59.54067 17.63723 11880 ft 249 kts 238°
2026-05-05 18:26 59.53352 17.60620 11785 ft 253 kts 261°
2026-05-05 18:26 59.53168 17.57211 11882 ft 249 kts 266°
2026-05-05 18:26 59.53034 17.53774 11801 ft 253 kts 266°
2026-05-05 18:27 59.52864 17.50313 11863 ft 250 kts 265°
2026-05-05 18:27 59.52738 17.46933 11835 ft 246 kts 268°
2026-05-05 18:27 59.52623 17.43589 11881 ft 242 kts 267°
2026-05-05 18:27 59.52493 17.40264 11817 ft 243 kts 266°
2026-05-05 18:28 59.52266 17.33751 12140 ft 228 kts 267°
2026-05-05 18:28 59.52142 17.30797 13161 ft 206 kts 266°
2026-05-05 18:28 59.52057 17.28190 14391 ft 181 kts 266°
2026-05-05 18:29 59.51990 17.25751 15349 ft 166 kts 267°
2026-05-05 18:29 59.51960 17.23599 16423 ft 152 kts 266°
2026-05-05 18:29 59.51927 17.21559 17315 ft 146 kts 265°
2026-05-05 18:29 59.51822 17.19652 18211 ft 140 kts 252°
2026-05-05 18:30 59.51164 17.18135 18784 ft 157 kts 230°
2026-05-05 18:30 59.50264 17.16930 19464 ft 152 kts 233°
2026-05-05 18:30 59.49588 17.15456 20211 ft 139 kts 244°
2026-05-05 18:30 59.49097 17.13838 20902 ft 137 kts 246°
2026-05-05 18:31 59.48606 17.12250 21587 ft 137 kts 245°
2026-05-05 18:31 59.48095 17.10631 22178 ft 142 kts 243°
2026-05-05 18:31 59.47577 17.09003 22905 ft 138 kts 244°
2026-05-05 18:31 59.47071 17.07420 23538 ft 138 kts 248°
2026-05-05 18:32 59.46617 17.05733 24033 ft 140 kts 246°
2026-05-05 18:32 59.46149 17.04063 24597 ft 139 kts 246°
2026-05-05 18:32 59.45664 17.02419 25106 ft 141 kts 246°
2026-05-05 18:32 59.45164 17.00727 25555 ft 145 kts 247°
2026-05-05 18:33 59.44651 16.98907 25751 ft 161 kts 247°
2026-05-05 18:33 59.44087 16.96865 25778 ft 180 kts 246°
2026-05-05 18:33 59.43495 16.94597 25790 ft 194 kts 246°
2026-05-05 18:33 59.42836 16.92209 25829 ft 204 kts 246°
2026-05-05 18:34 59.42143 16.89717 25902 ft 210 kts 246°
2026-05-05 18:34 59.41411 16.87118 25745 ft 222 kts 246°
2026-05-05 18:34 59.40676 16.84438 25820 ft 224 kts 246°
2026-05-05 18:34 59.39947 16.81720 25851 ft 226 kts 246°
2026-05-05 18:35 59.39205 16.78923 25866 ft 229 kts 247°
2026-05-05 18:35 59.38470 16.76139 25870 ft 231 kts 247°
2026-05-05 18:35 59.37741 16.73362 25841 ft 232 kts 247°
2026-05-05 18:35 59.36992 16.70499 25860 ft 234 kts 247°
2026-05-05 18:36 59.36245 16.67644 25868 ft 236 kts 247°
2026-05-05 18:36 59.35496 16.64778 25872 ft 237 kts 247°
2026-05-05 18:36 59.34744 16.61899 25874 ft 238 kts 247°
2026-05-05 18:36 59.33988 16.59009 25878 ft 239 kts 247°
2026-05-05 18:37 59.33231 16.56111 25879 ft 240 kts 247°
2026-05-05 18:37 59.32470 16.53199 25879 ft 240 kts 247°
2026-05-05 18:37 59.31709 16.50289 25878 ft 240 kts 247°
2026-05-05 18:37 59.30946 16.47370 25878 ft 241 kts 247°
2026-05-05 18:38 59.30183 16.44452 25878 ft 241 kts 247°
2026-05-05 18:38 59.29420 16.41536 25877 ft 241 kts 247°
2026-05-05 18:38 59.28655 16.38615 25876 ft 241 kts 247°
2026-05-05 18:38 59.27891 16.35701 25876 ft 241 kts 247°
2026-05-05 18:39 59.27114 16.32789 25878 ft 242 kts 244°
2026-05-05 18:39 59.25874 16.30479 25881 ft 261 kts 219°
2026-05-05 18:39 59.24142 16.29174 25881 ft 270 kts 210°
2026-05-05 18:39 59.22343 16.28068 25880 ft 271 kts 210°
2026-05-05 18:40 59.20546 16.26950 25884 ft 271 kts 211°
2026-05-05 18:40 59.18769 16.25758 25884 ft 269 kts 212°
2026-05-05 18:40 59.17009 16.24520 25884 ft 269 kts 212°
2026-05-05 18:40 59.15249 16.23261 25838 ft 269 kts 212°
2026-05-05 18:41 59.13514 16.21950 25864 ft 264 kts 216°
2026-05-05 18:41 59.11891 16.20337 25876 ft 262 kts 219°
2026-05-05 18:41 59.10239 16.18769 25881 ft 265 kts 216°
2026-05-05 18:41 59.08573 16.17255 25884 ft 264 kts 217°
2026-05-05 18:42 59.06924 16.15676 25887 ft 264 kts 217°
2026-05-05 18:42 59.05261 16.14133 25887 ft 265 kts 217°
2026-05-05 18:42 59.04138 16.13092 25899 ft 265 kts 217°
2026-05-05 18:42 59.02476 16.11531 25902 ft 266 kts 217°
2026-05-05 18:43 59.00810 16.09976 25897 ft 266 kts 217°
2026-05-05 18:43 58.99139 16.08425 25894 ft 266 kts 217°
2026-05-05 18:43 58.97471 16.06869 25893 ft 266 kts 217°
2026-05-05 18:43 58.95801 16.05317 25891 ft 266 kts 217°
2026-05-05 18:44 58.94130 16.03767 25898 ft 266 kts 217°
2026-05-05 18:44 58.92461 16.02216 25898 ft 266 kts 217°
2026-05-05 18:44 58.90789 16.00668 25899 ft 266 kts 217°
2026-05-05 18:44 58.89120 15.99123 25859 ft 266 kts 217°
2026-05-05 18:45 58.87450 15.97578 25878 ft 266 kts 217°
2026-05-05 18:45 58.85780 15.96036 25890 ft 266 kts 217°
2026-05-05 18:45 58.84107 15.94492 25900 ft 267 kts 217°
2026-05-05 18:45 58.82434 15.92950 25897 ft 267 kts 217°
2026-05-05 18:46 58.80756 15.91405 25898 ft 267 kts 217°
2026-05-05 18:46 58.79076 15.89860 25900 ft 268 kts 217°
2026-05-05 18:46 58.77373 15.88296 25902 ft 268 kts 217°
2026-05-05 18:46 58.75691 15.86752 25901 ft 268 kts 217°
2026-05-05 18:47 58.74005 15.85207 25903 ft 268 kts 217°
2026-05-05 18:47 58.72321 15.83665 25908 ft 268 kts 217°
2026-05-05 18:47 58.70634 15.82121 25909 ft 268 kts 217°
2026-05-05 18:47 58.68950 15.80582 25909 ft 268 kts 217°
2026-05-05 18:48 58.67263 15.79042 25908 ft 268 kts 217°
2026-05-05 18:48 58.65581 15.77509 25909 ft 268 kts 217°
2026-05-05 18:48 58.63895 15.75972 25901 ft 268 kts 217°
2026-05-05 18:48 58.62212 15.74439 25870 ft 267 kts 216°
2026-05-05 18:49 58.60532 15.72916 25894 ft 267 kts 216°
2026-05-05 18:49 58.58851 15.71388 25903 ft 267 kts 216°
2026-05-05 18:49 58.57168 15.69861 25907 ft 268 kts 216°
2026-05-05 18:49 58.55478 15.68331 25909 ft 269 kts 216°
2026-05-05 18:50 58.53784 15.66797 25909 ft 270 kts 216°
2026-05-05 18:50 58.52085 15.65262 25913 ft 270 kts 216°
2026-05-05 18:50 58.50382 15.63725 25911 ft 270 kts 216°
2026-05-05 18:50 58.48683 15.62191 25911 ft 271 kts 216°
2026-05-05 18:51 58.46977 15.60654 25910 ft 271 kts 216°
2026-05-05 18:51 58.45275 15.59122 25911 ft 271 kts 216°
2026-05-05 18:51 58.43568 15.57587 25911 ft 271 kts 216°
2026-05-05 18:51 58.41861 15.56053 25911 ft 271 kts 216°
2026-05-05 18:52 58.40156 15.54523 25912 ft 271 kts 216°
2026-05-05 18:52 58.38449 15.52994 25911 ft 271 kts 216°
2026-05-05 18:52 58.36741 15.51463 25874 ft 271 kts 216°
2026-05-05 18:52 58.35036 15.49940 25898 ft 271 kts 216°
2026-05-05 18:53 58.33328 15.48415 25910 ft 271 kts 216°
2026-05-05 18:53 58.31618 15.46886 25916 ft 272 kts 216°
2026-05-05 18:53 58.29906 15.45362 25924 ft 272 kts 216°
2026-05-05 18:53 58.28168 15.43813 25922 ft 272 kts 216°
2026-05-05 18:54 58.26450 15.42285 25918 ft 273 kts 216°
2026-05-05 18:54 58.24731 15.40758 25921 ft 273 kts 216°
2026-05-05 18:54 58.23011 15.39231 25917 ft 273 kts 216°
2026-05-05 18:54 58.21288 15.37704 25923 ft 273 kts 216°
2026-05-05 18:55 58.19568 15.36180 25929 ft 273 kts 216°
2026-05-05 18:55 58.17846 15.34656 25920 ft 273 kts 216°
2026-05-05 18:55 58.16124 15.33134 25925 ft 273 kts 216°
2026-05-05 18:55 58.14403 15.31615 25921 ft 273 kts 216°
2026-05-05 18:56 58.12680 15.30094 25922 ft 273 kts 216°
2026-05-05 18:56 58.10960 15.28582 25901 ft 273 kts 215°
2026-05-05 18:56 58.09295 15.26920 25908 ft 268 kts 220°
2026-05-05 18:56 58.07828 15.24849 25918 ft 261 kts 228°
2026-05-05 18:57 58.06440 15.22618 25919 ft 263 kts 227°
2026-05-05 18:57 58.04977 15.20509 25921 ft 264 kts 226°
2026-05-05 18:57 58.03542 15.18354 25921 ft 264 kts 227°
2026-05-05 18:57 58.02107 15.16194 25921 ft 264 kts 226°
2026-05-05 18:58 58.00657 15.14058 25925 ft 264 kts 226°
2026-05-05 18:58 57.99217 15.11904 25924 ft 265 kts 226°
2026-05-05 18:58 57.97771 15.09752 25924 ft 265 kts 226°
2026-05-05 18:58 57.96325 15.07610 25925 ft 264 kts 226°
2026-05-05 18:59 57.94882 15.05467 25925 ft 264 kts 226°
2026-05-05 18:59 57.93439 15.03327 25925 ft 264 kts 226°
2026-05-05 18:59 57.91991 15.01182 25925 ft 265 kts 226°
2026-05-05 18:59 57.90542 14.99040 25925 ft 265 kts 226°
2026-05-05 19:00 57.89093 14.96898 25925 ft 265 kts 226°
2026-05-05 19:00 57.87644 14.94760 25927 ft 265 kts 226°
2026-05-05 19:00 57.86194 14.92621 25925 ft 265 kts 226°
2026-05-05 19:00 57.84745 14.90486 25928 ft 265 kts 226°
2026-05-05 19:01 57.83296 14.88354 25926 ft 265 kts 226°
2026-05-05 19:01 57.81841 14.86217 25926 ft 265 kts 226°
2026-05-05 19:01 57.80370 14.84055 25925 ft 265 kts 226°
2026-05-05 19:01 57.78919 14.81927 25925 ft 265 kts 226°
2026-05-05 19:02 57.77465 14.79797 25927 ft 265 kts 226°
2026-05-05 19:02 57.76013 14.77671 25927 ft 265 kts 226°
2026-05-05 19:02 57.74562 14.75548 25928 ft 265 kts 226°
2026-05-05 19:02 57.73111 14.73429 25927 ft 264 kts 226°
2026-05-05 19:03 57.71661 14.71313 25924 ft 264 kts 226°
2026-05-05 19:03 57.70209 14.69197 25924 ft 265 kts 226°
2026-05-05 19:03 57.68759 14.67086 25924 ft 265 kts 226°
2026-05-05 19:03 57.67307 14.64973 25923 ft 265 kts 226°
2026-05-05 19:04 57.65854 14.62864 25935 ft 265 kts 226°
2026-05-05 19:04 57.64401 14.60751 25932 ft 264 kts 226°
2026-05-05 19:04 57.62948 14.58643 25891 ft 264 kts 226°
2026-05-05 19:04 57.61497 14.56541 25911 ft 265 kts 226°
2026-05-05 19:05 57.60039 14.54438 25918 ft 265 kts 226°
2026-05-05 19:05 57.58582 14.52326 25921 ft 266 kts 226°
2026-05-05 19:05 57.57117 14.50212 25922 ft 266 kts 225°
2026-05-05 19:05 57.55652 14.48100 25922 ft 267 kts 225°
2026-05-05 19:06 57.54182 14.45979 25924 ft 267 kts 225°
2026-05-05 19:06 57.52711 14.43863 25925 ft 267 kts 225°
2026-05-05 19:06 57.51239 14.41746 25924 ft 267 kts 225°
2026-05-05 19:06 57.49766 14.39630 25923 ft 268 kts 225°
2026-05-05 19:07 57.48293 14.37516 25920 ft 268 kts 225°
2026-05-05 19:07 57.46818 14.35401 25919 ft 268 kts 225°
2026-05-05 19:07 57.45342 14.33288 25917 ft 268 kts 225°
2026-05-05 19:07 57.43865 14.31176 25917 ft 268 kts 225°
2026-05-05 19:08 57.42386 14.29061 25914 ft 268 kts 225°
2026-05-05 19:08 57.40911 14.26955 25914 ft 268 kts 225°
2026-05-05 19:08 57.39431 14.24845 25913 ft 268 kts 225°
2026-05-05 19:08 57.37953 14.22733 25893 ft 269 kts 225°
2026-05-05 19:09 57.36462 14.20621 25902 ft 270 kts 225°
2026-05-05 19:09 57.34970 14.18497 25906 ft 271 kts 225°
2026-05-05 19:09 57.33476 14.16373 25909 ft 271 kts 225°
2026-05-05 19:09 57.31975 14.14247 25910 ft 272 kts 225°
2026-05-05 19:10 57.30452 14.12088 25911 ft 272 kts 225°
2026-05-05 19:10 57.28950 14.09960 25911 ft 273 kts 225°
2026-05-05 19:10 57.27442 14.07830 25911 ft 273 kts 225°
2026-05-05 19:10 57.25936 14.05701 25933 ft 273 kts 224°
2026-05-05 19:11 57.24428 14.03572 25936 ft 273 kts 224°
2026-05-05 19:11 57.22920 14.01448 25936 ft 273 kts 224°
2026-05-05 19:11 57.21409 13.99321 25936 ft 273 kts 224°
2026-05-05 19:11 57.19899 13.97196 25936 ft 273 kts 224°
2026-05-05 19:12 57.18389 13.95073 25935 ft 273 kts 224°
2026-05-05 19:12 57.16874 13.92948 25936 ft 273 kts 224°
2026-05-05 19:12 57.15365 13.90831 25888 ft 273 kts 224°
2026-05-05 19:12 57.13858 13.88700 25911 ft 273 kts 224°
2026-05-05 19:13 57.12347 13.86587 25925 ft 274 kts 223°
2026-05-05 19:13 57.10814 13.84492 25857 ft 276 kts 224°
2026-05-05 19:13 57.09276 13.82300 25587 ft 284 kts 224°
2026-05-05 19:13 57.07679 13.80091 25288 ft 290 kts 223°
2026-05-05 19:14 57.06063 13.77845 24998 ft 292 kts 224°
2026-05-05 19:14 57.04441 13.75575 24708 ft 295 kts 223°
2026-05-05 19:14 57.02797 13.73300 24419 ft 296 kts 223°
2026-05-05 19:14 57.01154 13.71015 24134 ft 297 kts 223°
2026-05-05 19:15 56.99507 13.68729 23852 ft 297 kts 223°
2026-05-05 19:15 56.97855 13.66444 23573 ft 297 kts 223°
2026-05-05 19:15 56.96206 13.64160 23247 ft 297 kts 223°
2026-05-05 19:15 56.94553 13.61877 22936 ft 298 kts 223°
2026-05-05 19:16 56.93438 13.60337 22718 ft 298 kts 223°
2026-05-05 19:16 56.91784 13.58055 22392 ft 298 kts 223°
2026-05-05 19:16 56.90130 13.55774 22022 ft 297 kts 223°
2026-05-05 19:16 56.88480 13.53507 21703 ft 296 kts 223°
2026-05-05 19:17 56.86842 13.51253 21390 ft 294 kts 223°
2026-05-05 19:17 56.85209 13.49011 21075 ft 293 kts 223°
2026-05-05 19:17 56.83581 13.46778 20766 ft 292 kts 223°
2026-05-05 19:17 56.81958 13.44553 20461 ft 292 kts 223°
2026-05-05 19:18 56.80334 13.42331 20164 ft 291 kts 223°
2026-05-05 19:18 56.78713 13.40115 19864 ft 291 kts 223°
2026-05-05 19:18 56.77095 13.37905 19568 ft 291 kts 223°
2026-05-05 19:18 56.75475 13.35695 19278 ft 290 kts 223°
2026-05-05 19:19 56.73862 13.33497 18988 ft 290 kts 223°
2026-05-05 19:19 56.72243 13.31293 18699 ft 290 kts 223°
2026-05-05 19:19 56.70625 13.29094 18415 ft 290 kts 223°
2026-05-05 19:19 56.69012 13.26902 18114 ft 290 kts 223°
2026-05-05 19:20 56.67395 13.24709 17758 ft 290 kts 222°
2026-05-05 19:20 56.65779 13.22516 17433 ft 290 kts 222°
2026-05-05 19:20 56.64159 13.20328 17112 ft 290 kts 222°
2026-05-05 19:20 56.62542 13.18139 16795 ft 290 kts 222°
2026-05-05 19:21 56.60928 13.15960 16480 ft 287 kts 222°
2026-05-05 19:21 56.59331 13.13808 16169 ft 284 kts 222°
2026-05-05 19:21 56.57736 13.11655 15857 ft 281 kts 222°
2026-05-05 19:21 56.56166 13.09542 15547 ft 280 kts 221°
2026-05-05 19:22 56.54606 13.07445 15245 ft 279 kts 221°
2026-05-05 19:22 56.53056 13.05361 14941 ft 276 kts 221°
2026-05-05 19:22 56.51523 13.03305 14653 ft 273 kts 221°
2026-05-05 19:22 56.50005 13.01269 14360 ft 271 kts 221°
2026-05-05 19:23 56.48496 12.99248 14069 ft 269 kts 221°
2026-05-05 19:23 56.46995 12.97239 13781 ft 268 kts 221°
2026-05-05 19:23 56.45495 12.95234 13458 ft 268 kts 221°
2026-05-05 19:23 56.43956 12.93339 13132 ft 270 kts 212°
2026-05-05 19:24 56.42205 12.92043 12779 ft 273 kts 205°
2026-05-05 19:24 56.40405 12.90909 12470 ft 274 kts 204°
2026-05-05 19:24 56.38592 12.89824 12155 ft 274 kts 204°
2026-05-05 19:24 56.36840 12.88501 11845 ft 272 kts 209°
2026-05-05 19:25 56.35101 12.87132 11534 ft 273 kts 206°
2026-05-05 19:25 56.33337 12.85854 11233 ft 273 kts 206°
2026-05-05 19:25 56.31591 12.84511 10932 ft 273 kts 207°
2026-05-05 19:25 56.29837 12.83192 10628 ft 273 kts 206°
2026-05-05 19:26 56.28077 12.81879 10343 ft 273 kts 206°
2026-05-05 19:26 56.26326 12.80554 10045 ft 272 kts 206°
2026-05-05 19:26 56.24610 12.79269 9751 ft 263 kts 206°
2026-05-05 19:26 56.22942 12.78020 9423 ft 257 kts 206°
2026-05-05 19:27 56.21304 12.76788 9099 ft 254 kts 206°
2026-05-05 19:27 56.19681 12.75574 8779 ft 252 kts 205°
2026-05-05 19:27 56.18078 12.74372 8558 ft 247 kts 205°
2026-05-05 19:27 56.16501 12.73129 8740 ft 245 kts 207°
2026-05-05 19:28 56.14972 12.71872 8991 ft 243 kts 206°
2026-05-05 19:28 56.13360 12.70806 8961 ft 250 kts 202°
2026-05-05 19:28 56.11722 12.69684 8949 ft 253 kts 207°
2026-05-05 19:28 56.10089 12.68386 8945 ft 253 kts 206°
2026-05-05 19:29 56.08485 12.67228 8946 ft 243 kts 205°
2026-05-05 19:29 56.06948 12.66090 8944 ft 236 kts 206°
2026-05-05 19:29 56.05407 12.64923 8945 ft 246 kts 206°
2026-05-05 19:29 56.03796 12.63737 8944 ft 254 kts 205°
2026-05-05 19:30 56.02151 12.62522 8944 ft 258 kts 205°
2026-05-05 19:30 56.00486 12.61282 8944 ft 260 kts 205°
2026-05-05 19:30 55.98820 12.60051 8944 ft 257 kts 205°
2026-05-05 19:30 55.97182 12.58842 8941 ft 253 kts 205°
2026-05-05 19:31 55.95566 12.57644 8943 ft 250 kts 205°
2026-05-05 19:31 55.93963 12.56462 8942 ft 249 kts 205°
2026-05-05 19:31 55.92367 12.55281 8934 ft 248 kts 205°
2026-05-05 19:31 55.90775 12.54107 8938 ft 247 kts 205°
2026-05-05 19:32 55.89185 12.52942 8935 ft 247 kts 205°
2026-05-05 19:32 55.87598 12.51774 8937 ft 247 kts 205°
2026-05-05 19:32 55.86012 12.50609 8938 ft 246 kts 205°
2026-05-05 19:32 55.84429 12.49448 8938 ft 246 kts 205°
2026-05-05 19:33 55.82847 12.48288 8940 ft 246 kts 205°
2026-05-05 19:33 55.81265 12.47128 8940 ft 246 kts 205°
2026-05-05 19:33 55.79687 12.45971 8943 ft 246 kts 205°
2026-05-05 19:33 55.78105 12.44816 8941 ft 246 kts 205°
2026-05-05 19:34 55.76524 12.43660 8939 ft 245 kts 205°
2026-05-05 19:34 55.74942 12.42504 8807 ft 250 kts 205°
2026-05-05 19:34 55.73297 12.41299 8420 ft 261 kts 205°
2026-05-05 19:35 55.69880 12.38814 7642 ft 263 kts 204°
2026-05-05 19:35 55.68226 12.37612 7262 ft 252 kts 204°
2026-05-05 19:35 55.66635 12.36458 6844 ft 242 kts 204°
2026-05-05 19:35 55.65089 12.35330 6374 ft 240 kts 203°
2026-05-05 19:36 55.63524 12.34193 5862 ft 240 kts 202°
2026-05-05 19:36 55.61999 12.33092 5381 ft 239 kts 202°
2026-05-05 19:36 55.60447 12.31968 4873 ft 237 kts 202°
2026-05-05 19:36 55.58935 12.30871 4351 ft 233 kts 202°
2026-05-05 19:37 55.57440 12.29792 3838 ft 231 kts 202°
2026-05-05 19:37 55.55943 12.28881 3389 ft 224 kts 187°
2026-05-05 19:37 55.54472 12.29261 3172 ft 206 kts 154°
2026-05-05 19:37 55.53310 12.30599 2830 ft 196 kts 136°
2026-05-05 19:38 55.52309 12.32198 2441 ft 192 kts 135°
2026-05-05 19:38 55.51325 12.33752 2187 ft 184 kts 135°
2026-05-05 19:38 55.50389 12.35165 2092 ft 171 kts 135°
2026-05-05 19:38 55.49511 12.36450 2032 ft 154 kts 136°
2026-05-05 19:39 55.48831 12.37782 1939 ft 150 kts 114°
2026-05-05 19:39 55.48525 12.39651 1884 ft 162 kts 86°
2026-05-05 19:39 55.48665 12.41656 1970 ft 167 kts 76°
2026-05-05 19:39 55.48868 12.43725 1992 ft 173 kts 75°
2026-05-05 19:40 55.49356 12.45550 2003 ft 162 kts 42°
2026-05-05 19:40 55.50245 12.46710 2011 ft 160 kts 35°
2026-05-05 19:40 55.51147 12.47876 2016 ft 159 kts 38°
2026-05-05 19:40 55.51955 12.49193 2030 ft 157 kts 41°
2026-05-05 19:41 55.52740 12.50385 1922 ft 140 kts 38°
2026-05-05 19:41 55.53411 12.51447 1699 ft 128 kts 39°
2026-05-05 19:41 55.54067 12.52412 1594 ft 114 kts 39°
2026-05-05 19:41 55.54604 12.53226 1428 ft 97 kts 39°
2026-05-05 19:42 55.55178 12.54118 1091 ft 116 kts 40°
2026-05-05 19:42 55.55751 12.55045 929 ft 109 kts 36°
2026-05-05 19:42 55.56311 12.55895 868 ft 106 kts 37°
2026-05-05 19:42 55.56896 12.56762 743 ft 116 kts 37°
2026-05-05 19:43 55.57511 12.57769 604 ft 118 kts 36°
2026-05-05 19:43 55.58113 12.58667 413 ft 113 kts 37°
2026-05-05 19:43 55.58726 12.59600 188 ft 112 kts 37°
2026-05-05 19:43 55.59271 12.60435 31 ft 96 kts 37°
2026-05-05 19:44 55.59713 12.61103 13 ft 69 kts 40°
2026-05-05 19:44 55.59980 12.61524 15 ft 27 kts 34°
2026-05-05 19:44 55.60056 12.61442 14 ft 17 kts 325°
2026-05-05 19:44 55.60082 12.61435 14 ft 0 kts 28°
2026-05-05 19:45 55.60128 12.61505 14 ft 15 kts 43°
2026-05-05 19:45 55.60222 12.61648 14 ft 18 kts 40°
2026-05-05 19:46 55.60264 12.61714 14 ft 0 kts 43°
2026-05-05 19:46 55.60319 12.61801 13 ft 19 kts 40°
2026-05-05 19:46 55.60426 12.61964 13 ft 21 kts 43°
2026-05-05 19:46 55.60510 12.62097 13 ft 18 kts 40°
2026-05-05 19:47 55.60640 12.62290 14 ft 26 kts 43°
2026-05-05 19:47 55.60797 12.62419 13 ft 25 kts 29°
2026-05-05 19:47 55.60914 12.62595 13 ft 19 kts 41°
2026-05-05 19:47 55.61011 12.62742 13 ft 14 kts 41°
2026-05-05 19:48 55.61100 12.62884 13 ft 16 kts 42°
2026-05-05 19:48 55.61216 12.63062 13 ft 25 kts 40°
2026-05-05 19:48 55.61296 12.63187 13 ft 17 kts 41°
2026-05-05 19:48 55.61395 12.63339 13 ft 18 kts 41°
2026-05-05 19:49 55.61504 12.63507 13 ft 21 kts 40°
2026-05-05 19:49 55.61612 12.63675 13 ft 24 kts 40°
2026-05-05 19:49 55.61708 12.63824 13 ft 17 kts 41°
2026-05-05 19:49 55.61824 12.64000 13 ft 18 kts 40°
2026-05-05 19:50 55.61949 12.64137 13 ft 26 kts 25°
2026-05-05 19:50 55.62095 12.64260 13 ft 19 kts 25°
2026-05-05 19:50 55.62144 12.64302 12 ft 0 kts 24°
2026-05-05 19:51 55.62145 12.64302 12 ft 2 kts 24°
2026-05-05 19:51 55.62224 12.64365 11 ft 10 kts 11°
2026-05-05 19:51 55.62309 12.64201 10 ft 29 kts 303°
2026-05-05 19:51 55.62419 12.63902 11 ft 23 kts 303°
2026-05-05 19:52 55.62499 12.63683 13 ft 22 kts 303°
2026-05-05 19:52 55.62588 12.63510 12 ft 16 kts 344°
2026-05-05 19:52 55.62663 12.63486 12 ft 9 kts 330°
2026-05-05 19:52 55.62690 12.63420 12 ft 7 kts 300°
2026-05-05 19:53 55.62721 12.63334 12 ft 0 kts 302°
2026-05-05 19:54 55.62774 12.63328 12 ft 12 kts 31°
2026-05-05 19:54 55.62838 12.63385 13 ft 1 kts 326°
2026-05-05 19:54 55.62824 12.63358 13 ft 9 kts 186°
2026-05-05 19:55 55.62821 12.63319 13 ft 3 kts 330°
2026-05-05 19:55 55.62828 12.63294 13 ft 2 kts 245°
2026-05-05 19:55 55.62798 12.63304 13 ft 0 kts 171°